User: anonymous   Login
Location: Unspecified
(0.0000°N, 0.0000°E)
Time: 12:49:15
(UTC+00:00)
Language:

Nova 1 - Orbit

View from above orbital plane
View from above orbital plane
View from above satellite
View from above satellite

Ground track
Ground track

The orbit data is extracted from the following two-line orbital elements,

1 12458U 81044A   17229.71911895  .00000044  00000-0  83115-4 0  9999
2 12458  89.9557 121.1967 0013354 196.4125 176.5503 13.22966294750289
Epoch (UTC): 17 August 2017 17:15:31
Eccentricity: 0.0013354
inclination: 89.9557°
perigee height: 1163 km
apogee height: 1183 km
right ascension of ascending node: 121.1967°
argument of perigee: 196.4125°
revolutions per day: 13.22966294
mean anomaly at epoch: 176.5503°
orbit number at epoch: 75028

The dashed part of the orbit path shows where the satellite is in the earth's shadow,  

DLR